Terminal Aerodrome Forecast
Issued by NWS

Home | Current Version | Previous Version | Text Only | Print | Product List | Glossary On
Versions: 1 2 3 4 5 6 7 8 9 10 11 12 13 14 15 16 17 18
000
FTUS42 TJSJ 112300
TAFJSJ
TAF
TJSJ 112340Z 1200/1224 10005KT P6SM SCT030 BKN100
     FM121400 07015KT P6SM FEW030 SCT050
     FM122300 09008KT P6SM FEW030 SCT050=

USA.gov is the U.S. government's official web portal to all federal, state and local government web resources and services.